星链-32238 (STARLINK-32238)

导读 | 豆包AI

STARLINK-32238是美国太空探索技术公司Starlink卫星互联网星座的成员,于2024年10月26日发射,归属美国,属于低轨通信卫星,旨在为全球提供高速卫星互联网接入服务,进一步扩展星链星座的覆盖范围与通信容量,支撑星链商业及相关配套服务运行。

基本信息
目录编号:
61661
目录名称:
STARLINK-32238
国际标识:
2024-193A
轨道中心:
EARTH
卫星名称:
星链-32238
卫星全名:
星链-32238 (STARLINK-32238)
卫星状态:
在轨 (已飞行552 天)
发射日期:
2024-10-26 UTC
国别 :
美国 (US)
星等 :
--
轨道信息
数据来源 国际轨道数据 AOE轨道数据
星历时间 2026-05-01T00:16:41+0800
12小时前
查看轨道信息
2026-04-30T07:00:00+0800
1天前
查看轨道信息
半长轴 6853.365km 6853.353km
偏心率 0.0000892 0.0001064
轨道倾角 53.159° 53.156°
近地点辐角 84.058° 76.735°
升交点赤经 209.715° 213.061°
平近点角 276.052° 275.378°
近地点 474.616km 474.486km
远地点 475.84km 475.946km
周期 94.106分钟 94.105分钟
每日圈数 15.301957 15.301998
详细信息
固有亮度:
5
最大亮度:
2.5
卫星平台:
Starlink V1.0
覆盖范围:
全球
运营商:
太空探索技术公司
运营商所在国:
美国
制造商(研发单位):
太空探索技术公司
制造商所在国:
美国
使用方式:
暂无
卫星简介
Starlink 计划是 SpaceX 推出的全球卫星互联网项目,通过发射低轨道卫星,为全球尤其是偏远地区提供高速、低延迟的互联网服务。自 2019 年起,Starlink 已部署数千颗卫星,旨在缩小全球数字鸿沟,推动互联网普及。该项目还为军事、航空等行业提供通信支持,带来广泛经济效益。
2D轨道图
3D轨道图
轨道高度分析图
轨道倾角分析图
轨道综合分析图
查看轨道综合分析图